FW1466 Weather Reports


Display with metric or nautical units.
time (UTC)temp
F
wind
direction
speed
MPH
gust
MPH
rain 1hr
in
rain 24hr
in
rain mn
in
humidity
%
barometer
mb
20260902074609 74 154 0.0 0.0 0.00 0.00 0.00 95 1013.4
20260902073057 74 154 0.0 0.0 0.00 0.00 0.00 95 1013.4
20260902071556 74 154 0.0 0.0 0.00 0.00 0.00 95 1013.3
20260902070054 74 154 0.0 0.0 0.00 0.00 0.00 95 1013.4
20260902064554 75 154 0.0 0.0 0.00 0.00 0.00 94 1013.5
20260902063059 75 154 0.0 0.0 0.00 0.00 0.00 94 1013.6
20260902061551 75 154 0.0 0.0 0.00 0.00 0.00 94 1013.7
20260902060050 75 154 0.0 0.0 0.00 0.00 0.00 94 1013.5
20260902054548 76 154 0.0 0.0 0.00 0.00 0.00 93 1013.5
20260902053046 76 155 0.0 0.0 0.00 0.00 0.00 93 1013.5
20260902051546 76 154 0.0 0.0 0.00 0.00 0.00 93 1013.7
20260902050057 76 154 0.0 0.0 0.00 0.00 0.00 92 1013.6
20260902044541 77 154 0.0 0.0 0.00 0.00 0.00 91 1013.6
20260902043046 77 154 0.0 0.0 0.00 0.00 0.00 90 1013.6
20260902041540 78 154 0.0 0.0 0.00 0.00 0.00 89 1013.6
20260902040040 78 154 0.0 0.0 0.00 0.00 0.00 88 1013.9
20260902034539 78 154 0.0 0.0 0.00 0.00 0.00 87 1013.7
20260902033039 79 154 0.0 0.0 0.00 0.00 0.00 87 1013.9
20260902031537 79 154 0.0 0.0 0.00 0.00 0.00 86 1013.9
20260902030036 80 154 0.0 0.0 0.00 0.00 0.00 86 1013.8
20260902024548 80 154 0.0 0.0 0.00 0.00 0.00 85 1013.8
20260902023036 81 154 0.0 0.0 0.00 0.00 0.00 85 1013.8
20260902021536 82 154 0.0 0.0 0.00 0.00 0.00 84 1013.7
20260902020036 82 154 0.0 0.0 0.00 0.00 0.00 83 1013.6
20260902014535 83 155 0.0 0.0 0.00 0.00 0.00 83 1013.6
20260902013039 84 154 0.0 1.0 0.00 0.00 0.00 82 1013.2
20260902011536 84 155 0.0 0.0 0.00 0.00 0.00 81 1012.9
20260902010035 85 155 0.0 2.0 0.00 0.00 0.00 80 1012.9
20260902004533 86 157 0.0 1.0 0.00 0.00 0.00 79 1012.7
20260902003032 87 153 0.0 2.0 0.00 0.00 0.00 78 1012.6
20260902001532 88 153 0.0 6.0 0.00 0.00 0.00 78 1012.6
20260902000030 89 190 0.0 4.0 0.00 0.01 0.00 77 1012.7
20260901234529 89 192 0.0 3.0 0.00 0.01 0.00 76 1012.7
20260901233028 90 165 0.0 2.0 0.00 0.01 0.00 74 1012.8
20260901231529 91 167 1.0 6.0 0.00 0.01 0.00 73 1012.9
20260901230029 91 118 0.0 3.0 0.00 0.01 0.00 73 1012.9
20260901224534 91 295 0.0 4.0 0.00 0.01 0.00 71 1013.0
20260901223026 92 249 0.0 1.0 0.00 0.01 0.00 73 1013.0
20260901221524 91 342 0.0 2.0 0.00 0.01 0.00 72 1013.1
20260901220026 92 322 0.0 3.0 0.00 0.02 0.00 71 1012.9
20260901214522 92 79 0.0 3.0 0.00 0.02 0.00 71 1012.8
20260901213039 93 161 1.0 3.0 0.00 0.02 0.00 71 1012.9
20260901211522 93 203 1.0 5.0 0.00 0.02 0.00 68 1013.0
20260901210025 94 173 1.0 8.0 0.00 0.02 0.00 66 1012.9
20260901204531 95 152 0.0 5.0 0.00 0.02 0.00 67 1013.0
20260901203029 94 141 0.0 7.0 0.00 0.02 0.00 67 1013.3
20260901201518 95 140 2.0 6.0 0.00 0.02 0.00 68 1013.2
20260901200016 95 105 1.0 6.0 0.00 0.02 0.00 67 1013.4
20260901194514 95 159 1.0 5.0 0.00 0.02 0.00 67 1013.4
20260901193014 94 155 0.0 5.0 0.00 0.02 0.00 69 1013.3
20260901191512 94 45 0.0 3.0 0.00 0.02 0.00 70 1013.6
20260901190008 94 49 0.0 5.0 0.00 0.02 0.00 71 1013.7
20260901184518 94 243 0.0 2.0 0.00 0.02 0.00 70 1013.7
20260901183007 93 279 0.0 3.0 0.00 0.02 0.00 73 1013.8
20260901181508 93 350 0.0 3.0 0.00 0.02 0.00 74 1013.9
20260901180003 93 42 0.0 3.0 0.00 0.02 0.00 75 1014.0
20260901174601 92 102 0.0 4.0 0.00 0.02 0.00 76 1014.0
20260901173059 91 49 1.0 5.0 0.00 0.02 0.00 74 1014.0
20260901171604 91 149 0.0 3.0 0.00 0.02 0.00 75 1014.2
20260901170056 91 139 0.0 4.0 0.00 0.02 0.00 76 1014.2
20260901164554 89 170 0.0 3.0 0.00 0.02 0.00 78 1014.3
20260901163051 89 188 0.0 4.0 0.00 0.02 0.00 77 1014.4
20260901161603 89 160 0.0 2.0 0.00 0.02 0.00 78 1014.3
20260901154541 87 259 0.0 2.0 0.00 0.02 0.00 80 1014.5
20260901153036 86 138 0.0 2.0 0.00 0.02 0.00 82 1014.4
20260901151532 85 220 0.0 3.0 0.00 0.02 0.00 82 1014.6
20260901150028 85 224 0.0 2.0 0.00 0.02 0.00 84 1014.5
20260901144525 83 178 0.0 2.0 0.00 0.02 0.00 84 1014.5
20260901143021 82 169 0.0 1.0 0.00 0.02 0.00 85 1014.5
20260901141515 81 177 0.0 2.0 0.00 0.02 0.00 87 1014.4
20260901140011 80 169 0.0 1.0 0.00 0.03 0.00 88 1014.5
20260901134507 79 169 0.0 0.0 0.00 0.03 0.00 90 1014.6
20260901133003 78 169 0.0 2.0 0.00 0.03 0.00 92 1014.6
20260901131601 77 161 0.0 0.0 0.00 0.03 0.00 95 1014.7
20260901130058 76 160 0.0 0.0 0.00 0.05 0.00 97 1014.7
20260901124557 75 160 0.0 0.0 0.00 0.05 0.00 97 1014.8
20260901123111 74 161 0.0 0.0 0.00 0.05 0.00 97 1014.7
20260901121551 74 160 0.0 0.0 0.00 0.05 0.00 98 1014.6
20260901120056 74 161 0.0 0.0 0.00 0.05 0.00 98 1014.4
20260901114548 74 161 0.0 0.0 0.00 0.05 0.00 97 1014.0
20260901113045 74 161 0.0 0.0 0.00 0.05 0.00 97 1014.1
20260901111549 74 161 0.0 0.0 0.00 0.05 0.00 97 1014.1
20260901110037 74 161 0.0 0.0 0.00 0.06 0.00 97 1013.8
20260901104539 74 161 0.0 0.0 0.00 0.06 0.00 96 1013.6
20260901103034 74 161 0.0 0.0 0.00 0.06 0.00 96 1013.5
20260901101536 75 161 0.0 0.0 0.00 0.06 0.00 96 1013.5
20260901100032 75 161 0.0 0.0 0.00 0.06 0.00 96 1013.6
20260901094532 75 161 0.0 0.0 0.00 0.06 0.00 95 1013.6
20260901093030 75 161 0.0 0.0 0.00 0.06 0.00 95 1013.7
20260901091530 75 161 0.0 0.0 0.00 0.06 0.00 95 1013.3
20260901090028 75 161 0.0 0.0 0.00 0.06 0.00 95 1013.3
20260901084528 75 161 0.0 0.0 0.00 0.06 0.00 94 1013.5
20260901083030 75 161 0.0 0.0 0.00 0.06 0.00 94 1013.2
20260901081526 76 161 0.0 0.0 0.00 0.06 0.00 93 1013.4
20260901080025 76 161 0.0 0.0 0.00 0.06 0.00 94 1013.3